TimePDT,TemperatureF,Dew PointF,Humidity,Sea Level PressureIn,VisibilityMPH,Wind Direction,Wind SpeedMPH,Gust SpeedMPH,PrecipitationIn,Events,Conditions,WindDirDegrees,DateUTC
12:54 AM,55.9,54.0,93,29.99,5.0,NNE,3.5,-,N/A,,Overcast,30,2012-11-02 07:54:00
1:54 AM,55.9,53.1,90,29.99,5.0,NE,3.5,-,N/A,,Overcast,40,2012-11-02 08:54:00
2:54 AM,53.1,52.0,96,29.99,5.0,NNE,3.5,-,N/A,,Mostly Cloudy,30,2012-11-02 09:54:00
3:11 AM,53.6,51.8,94,29.98,5.0,NNE,3.5,-,N/A,,Partly Cloudy,20,2012-11-02 10:11:00
3:54 AM,52.0,51.1,97,29.98,5.0,NNE,5.8,-,N/A,,Clear,30,2012-11-02 10:54:00
4:54 AM,51.1,51.1,100,29.98,5.0,NNE,4.6,-,N/A,,Clear,20,2012-11-02 11:54:00
5:54 AM,51.1,50.0,96,29.98,5.0,North,4.6,-,N/A,,Clear,10,2012-11-02 12:54:00
6:41 AM,51.8,51.8,100,29.98,4.0,NE,4.6,-,N/A,,Mostly Cloudy,40,2012-11-02 13:41:00
6:54 AM,51.1,51.1,100,29.98,5.0,NNE,3.5,-,N/A,,Scattered Clouds,30,2012-11-02 13:54:00
7:54 AM,51.1,51.1,100,30.00,5.0,NNE,4.6,-,N/A,,Scattered Clouds,30,2012-11-02 14:54:00
8:54 AM,55.9,53.1,90,30.01,7.0,North,4.6,-,N/A,,Partly Cloudy,10,2012-11-02 15:54:00
9:54 AM,61.0,55.0,81,30.02,7.0,NNW,3.5,-,N/A,,Partly Cloudy,330,2012-11-02 16:54:00
10:54 AM,63.0,55.0,75,30.03,7.0,South,6.9,-,N/A,,Mostly Cloudy,180,2012-11-02 17:54:00
11:54 AM,66.0,55.9,70,30.02,7.0,Variable,3.5,-,N/A,,Scattered Clouds,0,2012-11-02 18:54:00
12:54 PM,66.0,55.9,70,29.99,7.0,Variable,6.9,-,N/A,,Scattered Clouds,0,2012-11-02 19:54:00
1:54 PM,64.9,55.9,73,29.96,7.0,SSW,8.1,-,N/A,,Scattered Clouds,210,2012-11-02 20:54:00
2:54 PM,66.0,55.9,70,29.95,7.0,Variable,6.9,-,N/A,,Scattered Clouds,0,2012-11-02 21:54:00
3:54 PM,64.9,55.9,73,29.95,7.0,SW,5.8,-,N/A,,Scattered Clouds,230,2012-11-02 22:54:00
4:54 PM,64.0,57.0,78,29.95,7.0,West,8.1,-,N/A,,Partly Cloudy,280,2012-11-02 23:54:00
5:54 PM,61.0,57.9,90,29.95,7.0,West,6.9,-,N/A,,Scattered Clouds,260,2012-11-03 00:54:00
6:54 PM,59.0,57.9,96,29.95,7.0,Calm,Calm,-,N/A,,Scattered Clouds,0,2012-11-03 01:54:00
7:54 PM,57.9,57.9,100,29.96,7.0,ENE,3.5,-,N/A,,Partly Cloudy,60,2012-11-03 02:54:00
8:54 PM,55.9,55.9,100,29.96,7.0,Calm,Calm,-,N/A,,Partly Cloudy,0,2012-11-03 03:54:00
9:54 PM,54.0,54.0,100,29.98,6.0,Calm,Calm,-,N/A,,Partly Cloudy,0,2012-11-03 04:54:00
10:16 PM,55.4,53.6,94,29.97,1.2,Calm,Calm,-,N/A,,Clear,0,2012-11-03 05:16:00
10:24 PM,55.4,55.4,100,29.97,5.0,Calm,Calm,-,N/A,,Partly Cloudy,0,2012-11-03 05:24:00
10:54 PM,53.1,53.1,100,29.97,5.0,NE,3.5,-,N/A,,Partly Cloudy,50,2012-11-03 05:54:00
11:54 PM,53.1,53.1,100,29.98,5.0,Calm,Calm,-,N/A,,Partly Cloudy,0,2012-11-03 06:54:00